Hourly Data Report for October 15, 2015

All times are specified in Local Standard Time (LST). Add 1 hour to adjust for Daylight Saving Time where and when it is observed.

EUREKA CLIMATE
NUNAVUT

79°59'21.000" N
85°56'02.000" W
10.00 m
2401199
71613
NEK

Download Data

Hourly Data (October 2015)
Hourly Data Report for October 15, 2015
Temp Definition
°C
Dew Point Temp Definition
°C
Rel Hum Definition
%
Wind Dir Definition
10's deg

Wind Spd Definition
km/h
Visibility Definition
km
Stn Press Definition
kPa
Hmdx Definition


Wind Chill Definition


Weather Definition


TIME
00:00 -19.8 -21.4 87 2 1   100.56   -21 LegendNANA
01:00 -20.3 -21.9 87 32 1   100.52   -21 LegendNANA
02:00 -21.2 -23.0 86 35 1   100.46   -22 LegendNANA
03:00 -23.1 -25.1 84 2 1   100.42   -24 LegendNANA
04:00 -21.4 -23.2 86 34 1   100.35   -22 LegendNANA
05:00 -21.3 -23.0 86 31 1   100.27   -22 LegendNANA
06:00 -20.5 -22.2 86 5 4   100.20   -24 LegendNANA
07:00 -20.0 -21.5 88 28 8   100.11   -26 LegendNANA
08:00 -23.0 -24.9 84 5 4   100.02   -27 LegendNANA
09:00 -24.6 -26.7 83 3 10   99.93   -33 LegendNANA
10:00 -25.1 -27.3 82 1 6   99.86   -31 LegendNANA
11:00 -25.0 -27.3 82 9 1   99.78   -26 LegendNANA
12:00 -23.7 -25.6 84 10 2   99.69   -26 LegendNANA
13:00 -23.1 -25.0 84 2 3   99.59   -26 LegendNANA
14:00 -23.6 -25.6 83 11 7   99.52   -30 LegendNANA
15:00 -23.1 -25.0 84 11 7   99.48   -29 LegendNANA
16:00 -23.0 -24.8 85 15 2   99.44   -25 LegendNANA
17:00 -21.9 -23.7 85 12 10   99.39   -29 LegendNANA
18:00 -22.4 -24.3 84 12 7   99.34   -28 LegendNANA
19:00 -22.2 -24.1 85 13 12   99.30   -31 LegendNANA
20:00 -21.9 -23.8 85 12 13   99.31   -31 LegendNANA
21:00 -22.8 -24.9 83 12 8   99.31   -30 LegendNANA
22:00 -23.6 -25.7 83 12 14   99.32   -33 LegendNANA
23:00 -23.4 -25.4 84 12 12   99.35   -32 LegendNANA

Notes on Data Quality.

Legend

  • E = Estimated
  • M = Missing
  • NA = Not Available
  • ‡ = Partner data that is not subject to review by the National Climate Archives
Date modified: